Skip Page Navigation
NASA JPL Caltech
NASA Logo - Jet Propulsion Laboratory + View the NASA Portal
+ Center for Near-Earth Object Studies
JPL Home Earth Solar System Stars & Galaxies Technology
JPL Solar System Dynamics
BODIES ORBITS EPHEMERIDES TOOLS PHYSICAL DATA DISCOVERY FAQ SITE MAP
IMPORTANT: The SSD Announcement email list is now available. Major changes are coming in the near future, including possible hostname and/or URL changes. To be notified of such changes, subscribe to this email list.

Please visit this page for more details.


JPL Small-Body Database Browser
Search: [ help ]  
452263 (2015 TY135)
Classification: Outer Main-belt Asteroid          SPK-ID: 2452263
Ephemeris | Orbit Diagram | Orbital Elements | Mission Design | Physical Parameters | Discovery Circumstances | Close-Approach Data ]

[ show orbit diagram ]
Orbital Elements at Epoch 2458600.5 (2019-Apr-27.0) TDB
Reference: JPL 10 (heliocentric ecliptic J2000)
 Element Value Uncertainty (1-sigma)   Units 
e .04403408275029963 8.8624e-08  
a 3.234466811541075 8.036e-08 au
q 3.092040032308577 2.6646e-07 au
i 16.07958330759658 8.2545e-06 deg
node 85.59111955172273 2.6386e-05 deg
peri 310.5465620717198 8.4894e-05 deg
M 224.996880074106 7.6667e-05 deg
tp 2459397.289826182555
(2021-Jul-01.78982618)
0.00045281 TDB
period 2124.723766259436
5.82
7.9183e-05
2.168e-07
d
yr
n .1694337898021341 6.3144e-09 deg/d
Q 3.376893590773573 8.3899e-08 au
  Orbit Determination Parameters
   # obs. used (total)      144  
   data-arc span      6206 days (16.99 yr)  
   first obs. used      2001-05-24  
   last obs. used      2018-05-21  
   planetary ephem.      DE431  
   SB-pert. ephem.      SB431-N16  
   condition code      0  
   norm. resid. RMS      .52808  
   source      ORB  
   producer      Otto Matic  
   solution date      2018-Oct-04 12:21:41  

Additional Information
 Earth MOID = 2.12503 au 
 Jupiter MOID = 1.93566 au 
 T_jup = 3.122 
[ show covariance matrix ]

Ephemeris | Orbit Diagram | Orbital Elements | Mission Design | Physical Parameters | Discovery Circumstances | Close-Approach Data ]

Physical Parameter Table
Parameter Symbol Value Units Sigma Reference Notes
absolute magnitude H 15.7   n/a MPO440874  
diameter diameter 4.186 km 0.358 urn:nasa:pds:neowise_diameters_albedos::2.0[mainbelt] (http://adsabs.harvard.edu/abs/2011ApJ...741...68M)  
geometric albedo albedo 0.053   0.008 urn:nasa:pds:neowise_diameters_albedos::2.0[mainbelt] (http://adsabs.harvard.edu/abs/2011ApJ...741...68M)  

452263 (2015 TY135)          Discovered 2007-May-12 by Mt. Lemmon Survey at Mount Lemmon
Reference: Last Updated: 2015-11-30

[ show close-approach data ]
Alternate Designations
 2015 TY135 = 2007 JO33 = 2010 AE131 
Ephemeris | Orbit Diagram | Orbital Elements | Mission Design | Physical Parameters | Discovery Circumstances | Close-Approach Data ]
ABOUT SSD CREDITS/AWARDS PRIVACY/COPYRIGHT GLOSSARY LINKS
FirstGov 2019-Dec-12 09:03 UT
(server date/time)  
NASA Home Page
Site Manager:   Ryan S. Park
Webmaster  Alan B. Chamberlin